Vicksburg, LA

4:00 AM CDT on July 23, 2017 (GMT -0500)
Vicksburg Tallulah Regional

Weather History for KTVR - September, 2012

Change the Weather History Date:

Sunday, September 2, 2012

  Actual Average Record
Temperature  
Mean Temperature 84 °F 79 °F  
Max Temperature 93 °F 90 °F 104 °F (2000)
Min Temperature 75 °F 67 °F 50 °F (1954)
Degree Days  
Heating Degree Days 0 0  
Month to date heating degree days 0 0  
Since 1 July heating degree days 0 0  
Cooling Degree Days 19 14  
Month to date cooling degree days 38 28  
Year to date cooling degree days 2065 1817  
Growing Degree Days 33 (Base 50)    
Moisture  
Dew Point 76 °F    
Average Humidity 75    
Maximum Humidity 94    
Minimum Humidity 56    
Precipitation  
Precipitation T in 0.14 in 2.01 in (2008)
Month to date precipitation 0.02 0.27  
Year to date precipitation 39.12 36.84  
Sea Level Pressure  
Sea Level Pressure 30.02 in    
Wind  
Wind Speed 6 mph (SSW)    
Max Wind Speed 13 mph    
Max Gust Speed 22 mph    
Visibility 10 miles    
Events Rain    
T = Trace of Precipitation, MM = Missing Value Source: NWS Daily Summary

Daily Weather History Graph

Daily Weather History Graph

Search for Another Location

Airport or City:

Trip Planner

Search our weather history database for the weather conditions in past years. The results will help you decide how hot, cold, wet, or windy it might be!

Date:

Astronomy

Sep. 02, 2012 Rise Set
Actual Time 6:40 AM CDT 7:26 PM CDT
Civil Twilight 6:15 AM CDT 7:51 PM CDT
Nautical Twilight 5:45 AM CDT 8:20 PM CDT
Astronomical Twilight 5:15 AM CDT 8:50 PM CDT
Moon 8:27 PM CDT (9/2) 8:37 AM CDT (9/2)
Length of Visible Light 13h 36m
Length of Day
12h 46m
Waning Gibbous, 95% of the Moon is Illuminated
Sep 2
Waning Gibbous
Sep 8
Last Quarter
Sep 15
New
Sep 22
First Quarter
Sep 29
Full

Hourly Weather History & Observations

Time (CDT) Temp. Heat Index Dew Point Humidity Pressure Visibility Wind Dir Wind Speed Gust Speed Precip Events Conditions
12:53 AM 75.9 °F - 73.9 °F 94% 30.04 in 10.0 mi South 5.8 mph - N/A   Scattered Clouds
1:53 AM 75.9 °F - 73.9 °F 94% 30.03 in 10.0 mi Variable 3.5 mph - N/A   Scattered Clouds
2:07 AM 75.2 °F - 73.4 °F 94% 30.01 in 10.0 mi South 4.6 mph - N/A   Mostly Cloudy
2:15 AM 75.2 °F - 73.4 °F 94% 30.01 in 10.0 mi South 4.6 mph - N/A   Scattered Clouds
2:51 AM 75.2 °F - 73.4 °F 94% 30.01 in 10.0 mi Calm Calm - N/A   Mostly Cloudy
2:53 AM 75.9 °F - 73.9 °F 94% 30.02 in 10.0 mi SSW 3.5 mph - N/A   Mostly Cloudy
3:53 AM 77.0 °F - 75.0 °F 94% 30.02 in 10.0 mi SSW 4.6 mph - N/A   Overcast
4:53 AM 78.1 °F - 75.9 °F 93% 30.03 in 9.0 mi SW 5.8 mph - N/A   Overcast
5:53 AM 78.1 °F - 75.9 °F 93% 30.04 in 8.0 mi SW 4.6 mph - N/A   Overcast
6:53 AM 78.1 °F - 75.9 °F 93% 30.06 in 7.0 mi Variable 3.5 mph - N/A   Overcast
7:53 AM 79.0 °F - 77.0 °F 94% 30.07 in 6.0 mi Variable 3.5 mph - 0.00 in Rain Light Rain
8:11 AM 80.6 °F 87.1 °F 77.0 °F 89% 30.06 in 7.0 mi SW 4.6 mph - 0.00 in   Mostly Cloudy
8:45 AM 82.4 °F 90.9 °F 77.0 °F 84% 30.06 in 10.0 mi Variable 3.5 mph - 0.00 in   Mostly Cloudy
8:53 AM 82.0 °F 90.2 °F 77.0 °F 85% 30.08 in 10.0 mi SW 6.9 mph - 0.00 in   Overcast
9:14 AM 82.4 °F 90.9 °F 77.0 °F 84% 30.07 in 10.0 mi SW 5.8 mph 16.1 mph N/A   Overcast
9:53 AM 84.0 °F 92.6 °F 75.9 °F 76% 30.09 in 10.0 mi SW 8.1 mph - N/A   Overcast
10:12 AM 84.2 °F 92.3 °F 75.2 °F 74% 30.07 in 10.0 mi SW 6.9 mph 17.3 mph N/A   Overcast
10:53 AM 87.1 °F 97.3 °F 75.9 °F 69% 30.08 in 10.0 mi SW 10.4 mph 16.1 mph N/A   Scattered Clouds
11:53 AM 88.0 °F 98.5 °F 75.9 °F 67% 30.06 in 10.0 mi Variable 6.9 mph 17.3 mph N/A   Scattered Clouds
12:53 PM 90.0 °F 101.3 °F 75.9 °F 63% 30.04 in 10.0 mi SW 8.1 mph 17.3 mph N/A   Scattered Clouds
1:53 PM 90.0 °F 101.3 °F 75.9 °F 63% 30.01 in 10.0 mi West 6.9 mph - N/A   Mostly Cloudy
2:53 PM 91.9 °F 103.2 °F 75.0 °F 58% 29.98 in 10.0 mi Variable 5.8 mph - N/A   Clear
3:53 PM 91.9 °F 103.2 °F 75.0 °F 58% 29.96 in 10.0 mi Variable 6.9 mph - N/A   Clear
4:53 PM 91.0 °F 101.6 °F 75.0 °F 59% 29.96 in 10.0 mi Variable 5.8 mph - N/A   Partly Cloudy
5:53 PM 91.0 °F 100.4 °F 73.9 °F 57% 29.95 in 10.0 mi SW 6.9 mph - N/A   Clear
6:53 PM 87.1 °F 97.3 °F 75.9 °F 69% 29.94 in 10.0 mi SSW 4.6 mph - N/A   Partly Cloudy
7:53 PM 84.0 °F 93.7 °F 77.0 °F 79% 29.94 in 10.0 mi South 4.6 mph - N/A   Clear
8:53 PM 82.0 °F 90.2 °F 77.0 °F 85% 29.95 in 10.0 mi SSW 4.6 mph - 0.00 in   Clear
9:53 PM 81.0 °F 87.9 °F 77.0 °F 88% 29.96 in 10.0 mi South 5.8 mph - N/A   Clear
10:53 PM 80.1 °F 85.4 °F 75.9 °F 87% 29.96 in 10.0 mi SSW 5.8 mph - N/A   Clear
11:53 PM 79.0 °F - 75.0 °F 88% 29.97 in 10.0 mi Variable 4.6 mph - N/A   Clear